KZ-11 R/B

Last updated on Fri Dec 19 2025 00:02:10 GMT+0000 (Coordinated Universal Time)

1 67071U 25296C 25352.63338860 .05443035 60161-5 50273-3 0 9992 2 67071 41.3315 70.2352 0678861 355.0978 4.3418 14.86880523 827
UTC large
Height (km)
Speed (km/s)
/
Latitude / Longitude
Inclination (degrees)
Orbital Period (minutes)
Azimuth
Elevation
Range (km)
Doppler Factor

Next 0 passes for location: London (51.5072 / 0.1276)

Sorry there are no passes over London.